Flag for USA

Past Weather in Carbondale, Illinois, USA — Yesterday and Last 2 Weeks

Now
65 °F

Overcast.


Feels Like: 65 °F
Forecast: 78 / 61 °F
Wind: 8 mph from Southwest

Location: Southern Illinois Airport
Current Time: Sep 26, 2020 at 3:44:28 am
Latest Report: Sep 26, 2020 at 2:52 am
Visibility: 9 mi
Pressure29.95 "Hg
Humidity: 87%
Dew Point: 61 °F
Location of CarbondaleLocation

Past Weather in Carbondale — Graph

°F

Carbondale Temperature Yesterday

Maximum temperature yesterday: 72 °F (at 3:52 pm)
Minimum temperature yesterday: 54 °F (at 1:26 am)
Average temperature yesterday: 63 °F

High & Low Weather Summary for the Past Weeks

 TemperatureHumidityPressure
High87 °F (Sep 12, 12:52 pm)100% (Sep 17, 4:52 am)30.36 "Hg (Sep 17, 4:52 am)
Low42 °F (Sep 20, 6:52 am)33% (Sep 19, 2:52 pm)29.89 "Hg (Sep 12, 4:52 pm)
Average64 °F81%30.12 "Hg
* Reported Sep 11 2:07 am — Sep 26 2:13 am, Carbondale. Weather by CustomWeather, © 2020

Note: Actual official high and low records may vary slightly from our data, if they occured in-between our weather recording intervals... More about our weather records

Carbondale Weather History for the Previous 24 Hours

Scroll right to see more
 ConditionsComfort  
Time TempWeatherWind HumidityBarometerVisibility
2:13 am
Sat, Sep 26
65 °FOvercast.8 mph87%29.97 "Hg7 mi
1:52 am65 °FFog.10 mph87%29.96 "Hg6 mi
12:52 am65 °FFog.12 mph87%29.96 "Hg6 mi
12:01 am63 °FOvercast.6 mph93%29.98 "Hg7 mi
11:15 pm
Fri, Sep 25
58 °FFog.5 mph97%29.98 "Hg3 mi
10:52 pm58 °FFog.3 mph97%29.97 "Hg4 mi
10:29 pm60 °FFog.3 mph93%29.98 "Hg2 mi
9:52 pm60 °FClear.5 mph93%29.97 "Hg8 mi
8:52 pm63 °FClear.3 mph90%29.97 "Hg10 mi
8:27 pm64 °FPassing clouds.6 mph90%29.98 "Hg10 mi
7:52 pm66 °FOvercast.7 mph87%29.96 "Hg10 mi
6:52 pm69 °FOvercast.7 mph79%29.97 "Hg10 mi
5:52 pm70 °FOvercast.8 mph76%29.96 "Hg9 mi
4:52 pm71 °FOvercast.8 mph73%29.96 "Hg8 mi
3:52 pm72 °FOvercast.8 mph71%29.96 "Hg8 mi
2:52 pm71 °FOvercast.6 mph76%29.96 "Hg10 mi
1:52 pm71 °FOvercast.6 mph73%29.98 "Hg10 mi
12:52 pm70 °FOvercast.5 mph76%30.00 "Hg10 mi
12:23 pm69 °FOvercast.3 mph79%30.01 "Hg10 mi
11:52 am69 °FOvercast.3 mph79%30.01 "Hg10 mi
10:52 am65 °FLow clouds.No wind87%30.02 "Hg8 mi
9:52 am63 °FFog.No wind90%30.02 "Hg5 mi
8:52 am62 °FFog.3 mph93%30.01 "Hg6 mi
7:52 am61 °FFog.3 mph93%30.00 "Hg5 mi
7:11 am60 °FFog.No wind93%30.00 "Hg5 mi
6:52 am60 °FFog.No wind93%29.98 "Hg6 mi
5:52 am60 °FFog.No wind93%29.97 "Hg5 mi
5:08 am60 °FFog.No wind93%29.97 "Hg6 mi
4:52 am60 °FOvercast.No wind93%29.95 "Hg7 mi
3:52 am59 °FFog.No wind93%29.93 "Hg6 mi
3:14 am58 °FFog.No wind97%29.94 "Hg6 mi
Weather by CustomWeather, © 2020

See weather overview